Regional Weather Roundup
Issued by NWS

Home | Current Version | Previous Version | Graphics & Text | Print | Product List | Glossary On
Versions: 1 2 3 4 5 6 7 8 9 10 11 12 13 14 15 16 17 18 19 20 21 22 23 24 25 26 27 28 29 30 31 32 33 34 35 36 37 38 39 40 41 42 43 44 45 46 47 48 49 50
000
ASUS44 KMEG 271810
RWRTN
TENNESSEE HOURLY STATE WEATHER ROUNDUP
NATIONAL WEATHER SERVICE MEMPHIS TN
1200 PM CST MON FEB 27 2017

TNZ002-004-019-021-049-052-054-088>092-271900-
WEST TENNESSEE

CITY           SKY/WX    TMP DP  RH WIND       PRES   REMARKS
MEMPHIS INTL   MOSUNNY   60  49  66 SE9       30.13F
NWS MEMPHIS      N/A     61 N/A N/A MISG        N/A
JACKSON        MOSUNNY   61  49  64 SE7       30.15F
UNION CITY     SUNNY     61  45  55 CALM      30.13F
PARIS          SUNNY     61  45  55 S8        30.16F
HUNTINGDON     SUNNY     63  46  55 S10G18    30.15F
$$

TNZ008-025-027-028-033-062-065-066-271900-
NORTH MIDDLE TENNESSEE

CITY           SKY/WX    TMP DP  RH WIND       PRES   REMARKS
NASHVILLE      PTSUNNY   58  38  47 S14G22    30.21F
PORTLAND       SUNNY     59  39  47 S23G29    30.19F
CLARKSVILLE    SUNNY     59  42  53 S13       30.17F
SMYRNA         MOSUNNY   57  41  55 S13G18    30.22F
COOKEVILLE     PTSUNNY   54  41  62 S12G18    30.23S
GALLATIN       CLOUDY    59  39  47 S12G18    30.23F
CROSSVILLE     PTSUNNY   47  39  74 S10G31    30.25S
$$

TNZ061-075-076-078-094-096-097-271900-
SOUTH MIDDLE TENNESSEE

CITY           SKY/WX    TMP DP  RH WIND       PRES   REMARKS
FAYETTEVILLE   MOSUNNY   54  43  66 S17       30.21S
TULLAHOMA      SUNNY     52  39  62 SE14      30.22F
WINCHESTER     CLOUDY    50  43  76 SE16      30.22F
MCMINNVILLE    MOSUNNY   54  41  62 S12       30.22F
COLUMBIA       SUNNY     54  48  82 S13       30.20F
SHELBYVILLE    MOSUNNY   55  43  62 S9        30.23S
$$

TNZ017-018-042-046-047-271900-
NORTHEAST TENNESSEE

CITY           SKY/WX    TMP DP  RH WIND       PRES   REMARKS
TRI CITIES     CLOUDY    57  22  25 S10       30.30F
ELIZABETHTON   CLOUDY    57  28  33 SW16G23   30.31F
$$

TNZ012-013-036-069-073-074-271900-
CENTRAL EAST TENNESSEE

CITY           SKY/WX    TMP DP  RH WIND       PRES   REMARKS
KNOXVILLE      CLOUDY    46  30  53 S8        30.30F
OAK RIDGE      LGT RAIN  46  35  65 VRB5      30.31F
GATLINBURG     SUNNY     45  28  53 CALM      30.31F
MORRISTOWN     SUNNY     50  30  46 W7        30.30F
JACKSBORO      PTSUNNY   50  30  46 S12G17    30.30R
$$

TNZ083-085-099-271900-
SOUTHEAST TENNESSEE

CITY           SKY/WX    TMP DP  RH WIND       PRES   REMARKS
CHATTANOOGA    DRIZZLE   47  41  80 CALM      30.30F
$$

SKY/WX REPORTED AS FAIR MEANS FEW OR NO CLOUDS BELOW
12 THOUSAND FEET.




USA.gov is the U.S. government's official web portal to all federal, state and local government web resources and services.